Location: Trento
(46.0670°N, 11.1330°E)
Time: 23:51:43
(UTC+02:00)

ISS - Visible Passes

Search period start: 17 April 2024 00:00
Search period end: 27 April 2024 00:00
Orbit: 412 x 419 km, 51.6° (Epoch: 17 April)

Date Brightness Start Highest point End Pass type
(mag) Time Alt. Az. Time Alt. Az. Time Alt. Az.
20 Apr -1.2 05:33:56 10° S 05:36:02 16° SE 05:38:08 10° E visible
22 Apr -2.6 05:31:39 10° SSW 05:34:44 36° SE 05:37:50 10° ENE visible
23 Apr -2.0 04:44:20 16° S 04:45:57 23° SE 04:48:39 10° E visible
24 Apr -1.4 03:57:17 14° SE 03:57:17 14° SE 03:59:03 10° E visible
24 Apr -3.8 05:30:09 10° WSW 05:33:26 85° SSE 05:36:47 10° ENE visible
25 Apr -3.4 04:42:59 28° SSW 04:44:27 54° SSE 04:47:43 10° ENE visible
26 Apr -2.6 03:55:44 32° SE 03:55:44 32° SE 03:58:31 10° ENE visible
26 Apr -3.2 05:28:51 10° W 05:32:06 50° NNW 05:35:22 10° ENE visible
